Terug naar catalogus

THORAD AGENA D DEB

ActiefSSO
NORAD 10136·DEBRIS·🇺🇸 United States

Gelanceerd Apr 8, 1970 vanaf Vandenberg Space Force Base

Loading…

Volgende Passages (komende 24 uur)

TLE

VersSource: Space-Track

Epoch: Sep 14, 2026, 10:06 UTC

1 10136U 70025NQ  26257.42097554  .00000002  00000-0  75352-4 0  9991
2 10136 100.1762 235.6072 0001664 114.7302  48.7989 13.52045021782555

Volg THORAD AGENA D DEB in realtime met AllMySat

Download on the App Store